Regional Weather Roundup
Issued by NWS

Home | Current Version | Previous Version | Text Only | Print | Product List | Glossary On
Versions: 1 2 3 4 5 6 7 8 9 10 11 12 13 14 15 16 17 18 19 20 21 22 23 24 25 26 27 28 29 30 31 32 33 34 35 36 37 38 39 40 41 42 43 44 45 46 47 48 49 50
000
ASUS43 KDTX 241510
RWRMI
MICHIGAN HOURLY REGIONAL WEATHER ROUNDUP
NATIONAL WEATHER SERVICE DETROIT/PONTIAC MI
ISSUED BY NATIONAL WEATHER SERVICE GRAND RAPIDS MI
1000 AM EST FRI FEB 24 2017

NOTE: "FAIR" INDICATES FEW OR NO CLOUDS BELOW 12,000 FEET WITH NO
SIGNIFICANT WEATHER AND/OR OBSTRUCTION TO VISIBILITY.

MIZ047>049-052>055-059>063-066>070-074>076-081>083-241600-
SOUTHEAST LOWER MICHIGAN

CITY           SKY/WX    TMP DP  RH WIND       PRES   REMARKS
ADRIAN         CLOUDY    44  44 100 E5        29.60F FOG
ALMA           LGT SNOW  34  33  98 E12G20    29.60F WCI  25
ANN ARBOR      FOG       43  43 100 E3        29.61R VSB 1/2
BAD AXE        LGT SNOW  36  36  99 E9        29.67F WCI  29
DETROIT CITY   FOG       44  44 100 E3        29.64R VSB<1/4
DETROIT        CLOUDY    46  45  96 CALM      29.64R FOG
FLINT          FOG       39  39 100 E3        29.64R VSB 3/4
GROSSE ILE     CLOUDY    41  40  97 SW5       29.63R FOG
HILLSDALE      CLOUDY    46  46 100 SE12      29.55F FOG
HOWELL         FOG       42  41  95 E3        29.61S VSB 1/4

CITY           SKY/WX    TMP DP  RH WIND       PRES   REMARKS
JACKSON        CLOUDY    46  44  93 SE8       29.57F FOG
LANSING        FOG       39  36  89 E15       29.53F VSB 1   WCI  31
MASON          LGT RAIN  41  41  99 NE8       29.56F VSB 1/4
MONROE         FOG       42  42 100 N3        29.62R VSB 1
MT. CLEMENS    FOG       43  43 100 CALM      29.63R VSB 1/8
PONTIAC        FOG       41  39  93 SE6       29.62R VSB 1/4
PORT HOPE        N/A     37  36  96 E20       29.66F WCI  27
PORT HURON     FOG       39  39 100 CALM      29.66R VSB 1/2
TRI CITIES     LGT RAIN  36  35  96 E15       29.63F FOG     WCI  27
YPSILANTI      FOG       46  45  96 E3        29.63R VSB 1/4
$$
MIZ043>046-050>051-056>058-064>065-071>073-077>080-241600-
SOUTHWEST LOWER MICHIGAN

CITY           SKY/WX    TMP DP  RH WIND       PRES   REMARKS
BATTLE CREEK   CLOUDY    47  46  97 SE5       29.52R FOG
BENTON HARBOR  CLOUDY    52  50  93 W6        29.48S FOG
BIG RAPIDS     CLOUDY    35  33  95 E7        29.61R WCI  29
COLDWATER      CLOUDY    54  53  95 SE13G18   29.49F
HOLLAND        CLOUDY    39  37  92 E8        29.53R WCI  33
GRAND RAPIDS   CLOUDY    36  33  89 E13       29.55S WCI  27
KALAMAZOO      CLOUDY    52  49  89 W5        29.53R FOG
MARSHALL       CLOUDY    48  47  98 SE10      29.50F FOG
MOUNT PLEASANT LGT SNOW  33  32  97 NE13      29.62S WCI  24
MUSKEGON       CLOUDY    36  33  89 E16       29.57S WCI  26
STURGIS        CLOUDY    57  54  91 S12       29.50S
$$
MIZ016>042-241600-
NORTHERN LOWER MICHIGAN

CITY           SKY/WX    TMP DP  RH WIND       PRES   REMARKS
ALPENA         RAIN      34  34 100 E9        29.74F FOG     WCI  27
BEAVER ISLAND  SNOW      28  27  96 N10       29.81R VSB 1/2 WCI  18
BELLAIRE       LGT SNOW  32  31  95 NE9       29.66F WCI  24
CADILLAC       CLOUDY    32  31  96 E3        29.60F FOG
CHARLEVOIX     LGT SNOW  30  29  96 NE13      29.74F VSB 3/4 WCI  20
GAYLORD        FRZ RAIN  33  29  85 NE10G20   29.66S FOG     WCI  25
HOUGHTON LAKE  TSTM      32  31  96 E14       29.63F FOG     WCI  22
MANISTEE       MIX PCPN  32  30  92 N8        29.66R WCI  25
OSCODA         LGT SNOW  36  35  96 E16       29.65F WCI  26
PELLSTON       LGT SNOW  30  26  85 NE16      29.73F VSB 3/4 WCI  19
TRAVERSE CITY  LGT RAIN  32  31  96 NE6       29.66F WCI  26
LUDINGTON      MIX PCPN  32  32 100 N6        29.62R WCI  27
$$
MIZ007>008-015-241600-
EASTERN UPPER MICHIGAN

CITY           SKY/WX    TMP DP  RH WIND       PRES   REMARKS
KINROSS        LGT SNOW  27  24  89 NE14      29.80S FOG     WCI  16
MACKINAC ISLAN LGT SNOW  28  28 100 NE13G18   29.77S WCI  18
NEWBERRY       LGT SNOW  26  18  73 N12G20    29.85R WCI  15
S. S. MARIE    FLURRIES  29  21  72 NE8       29.82R WCI  21
$$
MIZ004>006-011>014-085-241600-
CENTRAL UPPER MICHIGAN

CITY           SKY/WX    TMP DP  RH WIND       PRES   REMARKS
MANISTIQUE     LGT SNOW  26  24  95 NE14G21   29.77F WCI  14
ESCANABA       LGT SNOW  27  25  93 NE12G17   29.79F VSB 1   WCI  16
MENOMINEE      LGT SNOW  28  24  85 NE21G30   29.76F FOG     WCI  15
SAWYER-GWINN   SNOW      23  21  93 N21       29.80F VSB 1/4 WCI   8
$$
MIZ001>003-009>011-084-241600-
WESTERN UPPER MICHIGAN

CITY           SKY/WX    TMP DP  RH WIND       PRES   REMARKS
IRON MOUNTAIN  MIX PCPN  24  17  74 N14       29.77S WCI  12
HOUGHTON       LGT SNOW  19  12  74 NE14      29.90F WCI   6
COPPER HARBOR    N/A     21  16  81 E18G25    29.96S WCI   6
IRONWOOD       LGT SNOW  21  17  84 NE12G20   29.87S VSB 1   WCI   9
$$

ABBREVIATIONS USED IN REMARKS
   TC - TEMPERATURE IN CELSIUS
  WCI - WIND CHILL INDEX
   HX - HEAT INDEX
  VSB - VISIBILITY





USA.gov is the U.S. government's official web portal to all federal, state and local government web resources and services.